Weather History for KSUW - November, 2012

Change the Weather History Date:

Friday, November 2, 2012

  Actual Average Record
Temperature  
Mean Temperature 27 °F -  
Max Temperature 36 °F 45 °F 68 °F (1965)
Min Temperature 18 °F 30 °F -5 °F (1951)
Degree Days  
Heating Degree Days 38    
Moisture  
Dew Point 23 °F    
Average Humidity 77    
Maximum Humidity 94    
Minimum Humidity 62    
Precipitation  
Precipitation 0.00 in - - ()
Sea Level Pressure  
Sea Level Pressure 30.16 in    
Wind  
Wind Speed 4 mph (NE)    
Max Wind Speed 9 mph    
Max Gust Speed -    
Visibility 10 miles    
Events      
Averages and records for this station are not official NWS values.
T = Trace of Precipitation, MM = Missing Value Source: NWS Daily Summary

Daily Weather History Graph

Daily Weather History Graph

Search for Another Location

Airport or City:

Trip Planner

Search our weather history database for the weather conditions in past years. The results will help you decide how hot, cold, wet, or windy it might be!

Date:

Astronomy

Nov. 02, 2012 Rise Set
Actual Time 7:52 AM CDT 5:50 PM CDT
Civil Twilight 7:20 AM CDT 6:22 PM CDT
Nautical Twilight 6:44 AM CDT 6:58 PM CDT
Astronomical Twilight 6:09 AM CDT 7:33 PM CDT
Moon 8:30 PM CDT (11/2) 11:21 AM CDT (11/2)
Length of Visible Light 11h 01m
Length of Day
9h 58m
Waning Gibbous, 87% of the Moon is Illuminated
Nov 2
Waning Gibbous
Nov 6
Last Quarter
Nov 13
New
Nov 20
First Quarter
Nov 28
Full

Hourly Weather History & Observations

Time (CDT) Temp. Windchill Dew Point Humidity Pressure Visibility Wind Dir Wind Speed Gust Speed Precip Events Conditions
12:15 AM 29.7 °F 23.7 °F 23.4 °F 77% 30.08 in 10.0 mi NNW 5.8 mph - N/A   Scattered Clouds
12:35 AM 31.1 °F 26.4 °F 24.1 °F 75% 30.08 in 10.0 mi North 4.6 mph - N/A   Scattered Clouds
12:55 AM 30.9 °F 27.5 °F 23.9 °F 75% 30.08 in 10.0 mi North 3.5 mph - N/A   Scattered Clouds
1:15 AM 29.7 °F - 23.7 °F 79% 30.08 in 10.0 mi Calm Calm - N/A   Clear
1:35 AM 27.3 °F - 22.6 °F 83% 30.08 in 10.0 mi Calm Calm - N/A   Clear
1:55 AM 24.1 °F 19.7 °F 22.1 °F 92% 30.08 in 10.0 mi NE 3.5 mph - N/A   Clear
2:15 AM 28.0 °F - 22.3 °F 79% 30.09 in 10.0 mi Calm Calm - N/A   Clear
2:35 AM 27.1 °F - 21.9 °F 81% 30.11 in 10.0 mi Calm Calm - N/A   Clear
2:55 AM 27.3 °F 23.4 °F 22.3 °F 81% 30.11 in 10.0 mi NE 3.5 mph - N/A   Clear
3:15 AM 26.6 °F - 22.1 °F 83% 30.11 in 10.0 mi Calm Calm - N/A   Clear
3:35 AM 25.7 °F - 21.2 °F 83% 30.11 in 10.0 mi Calm Calm - N/A   Clear
3:55 AM 26.6 °F 22.6 °F 21.7 °F 82% 30.11 in 10.0 mi NE 3.5 mph - N/A   Clear
4:15 AM 26.8 °F 20.2 °F 21.0 °F 79% 30.11 in 10.0 mi North 5.8 mph - N/A   Clear
4:35 AM 27.0 °F 21.6 °F 21.0 °F 78% 30.11 in 10.0 mi North 4.6 mph - N/A   Clear
4:55 AM 25.5 °F 18.7 °F 20.3 °F 81% 30.11 in 10.0 mi North 5.8 mph - N/A   Clear
5:15 AM 26.1 °F 20.5 °F 20.8 °F 81% 30.11 in 10.0 mi North 4.6 mph - N/A   Clear
5:35 AM 24.6 °F 16.7 °F 20.1 °F 83% 30.12 in 10.0 mi NNW 6.9 mph - N/A   Clear
5:55 AM 24.6 °F 17.7 °F 20.8 °F 86% 30.12 in 10.0 mi NNW 5.8 mph - N/A   Clear
6:15 AM 24.8 °F 19.1 °F 20.5 °F 84% 30.13 in 10.0 mi NNW 4.6 mph - N/A   Clear
6:35 AM 24.3 °F 18.4 °F 20.1 °F 84% 30.13 in 10.0 mi North 4.6 mph - N/A   Clear
6:55 AM 24.8 °F 20.5 °F 20.8 °F 85% 30.14 in 10.0 mi NNW 3.5 mph - N/A   Clear
7:15 AM 23.0 °F 18.4 °F 20.1 °F 89% 30.14 in 10.0 mi NNW 3.5 mph - N/A   Clear
7:35 AM 19.2 °F - 17.8 °F 94% 30.14 in 10.0 mi Calm Calm - N/A   Clear
7:55 AM 20.5 °F - 18.3 °F 91% 30.15 in 10.0 mi Calm Calm - N/A   Clear
8:15 AM 18.5 °F - 16.5 °F 92% 30.16 in 10.0 mi Calm Calm - N/A   Clear
8:35 AM 18.5 °F - 16.5 °F 92% 30.16 in 10.0 mi Calm Calm - N/A   Clear
8:55 AM 19.8 °F - 17.8 °F 92% 30.16 in 10.0 mi Calm Calm - N/A   Clear
9:15 AM 26.2 °F - 23.2 °F 88% 30.17 in 10.0 mi Calm Calm - N/A   Clear
9:35 AM 29.7 °F 24.7 °F 24.1 °F 80% 30.17 in 10.0 mi NE 4.6 mph - N/A   Clear
9:55 AM 30.9 °F 26.2 °F 23.9 °F 75% 30.17 in 10.0 mi ENE 4.6 mph - N/A   Clear
10:15 AM 32.0 °F 27.5 °F 24.4 °F 74% 30.17 in 10.0 mi ENE 4.6 mph - N/A   Scattered Clouds
10:35 AM 32.2 °F 25.8 °F 23.7 °F 71% 30.18 in 10.0 mi ENE 6.9 mph - N/A   Scattered Clouds
10:55 AM 33.1 °F 28.7 °F 23.7 °F 68% 30.18 in 10.0 mi East 4.6 mph - N/A   Scattered Clouds
11:15 AM 34.7 °F 30.6 °F 24.3 °F 66% 30.19 in 10.0 mi ESE 4.6 mph - N/A   Mostly Cloudy
11:35 AM 32.9 °F 26.7 °F 24.3 °F 71% 30.19 in 10.0 mi NE 6.9 mph - N/A   Overcast
11:55 AM 33.4 °F 26.6 °F 24.4 °F 70% 30.19 in 10.0 mi ENE 8.1 mph - N/A   Overcast
12:15 PM 33.4 °F 29.1 °F 24.4 °F 70% 30.20 in 10.0 mi ENE 4.6 mph - N/A   Overcast
12:35 PM 33.4 °F 30.4 °F 24.6 °F 70% 30.20 in 10.0 mi NNE 3.5 mph - N/A   Overcast
12:55 PM 35.4 °F 29.7 °F 24.4 °F 64% 30.19 in 10.0 mi NNE 6.9 mph - N/A   Overcast
1:15 PM 35.2 °F 28.8 °F 23.9 °F 63% 30.19 in 10.0 mi NE 8.1 mph - N/A   Scattered Clouds
1:35 PM 35.4 °F 30.5 °F 24.4 °F 64% 30.19 in 10.0 mi NE 5.8 mph - N/A   Clear
1:55 PM 34.9 °F 30.8 °F 24.3 °F 65% 30.18 in 10.0 mi ENE 4.6 mph - N/A   Scattered Clouds
2:15 PM 35.1 °F 29.3 °F 24.4 °F 65% 30.18 in 10.0 mi East 6.9 mph - N/A   Scattered Clouds
2:35 PM 35.1 °F 29.3 °F 23.7 °F 63% 30.18 in 10.0 mi East 6.9 mph - N/A   Clear
2:55 PM 35.8 °F 29.4 °F 23.7 °F 62% 30.17 in 10.0 mi East 8.1 mph - N/A   Clear
3:15 PM 35.2 °F 29.5 °F 23.9 °F 63% 30.17 in 10.0 mi East 6.9 mph - N/A   Clear
3:35 PM 36.1 °F 31.4 °F 24.1 °F 62% 30.16 in 10.0 mi ENE 5.8 mph - N/A   Clear
3:55 PM 36.1 °F 31.4 °F 24.6 °F 63% 30.16 in 10.0 mi East 5.8 mph - N/A   Clear
4:15 PM 33.4 °F 29.1 °F 25.0 °F 71% 30.16 in 10.0 mi East 4.6 mph - N/A   Clear
4:35 PM 33.1 °F 28.7 °F 24.8 °F 72% 30.17 in 10.0 mi East 4.6 mph - N/A   Clear
4:55 PM 32.9 °F - 25.3 °F 74% 30.17 in 10.0 mi Calm Calm - N/A   Clear
5:15 PM 32.5 °F 29.3 °F 25.2 °F 74% 30.17 in 10.0 mi NE 3.5 mph - N/A   Clear
5:35 PM 32.0 °F 28.7 °F 24.8 °F 75% 30.18 in 10.0 mi NNE 3.5 mph - N/A   Clear
5:55 PM 32.0 °F 28.7 °F 24.8 °F 75% 30.18 in 10.0 mi North 3.5 mph - N/A   Clear
6:15 PM 31.5 °F 26.8 °F 25.0 °F 77% 30.18 in 10.0 mi NE 4.6 mph - N/A   Clear
6:35 PM 31.3 °F 26.6 °F 24.8 °F 77% 30.19 in 10.0 mi NE 4.6 mph - N/A   Clear
6:55 PM 32.0 °F 28.7 °F 25.2 °F 76% 30.20 in 10.0 mi NE 3.5 mph - N/A   Clear
7:15 PM 31.8 °F 27.3 °F 24.3 °F 74% 30.19 in 10.0 mi ENE 4.6 mph - N/A   Clear
7:35 PM 32.0 °F 26.4 °F 25.0 °F 75% 30.19 in 10.0 mi NE 5.8 mph - N/A   Clear
7:55 PM 32.0 °F 27.5 °F 26.6 °F 80% 30.19 in 10.0 mi NNE 4.6 mph - N/A   Clear
8:15 PM 32.2 °F 26.7 °F 27.1 °F 82% 30.19 in 10.0 mi NE 5.8 mph - N/A   Clear
8:35 PM 32.4 °F 29.1 °F 26.6 °F 79% 30.20 in 10.0 mi East 3.5 mph - N/A   Clear
8:55 PM 31.6 °F 26.0 °F 24.6 °F 75% 30.20 in 10.0 mi ESE 5.8 mph - N/A   Clear
9:15 PM 30.9 °F 27.5 °F 24.1 °F 76% 30.20 in 10.0 mi SE 3.5 mph - N/A   Clear
9:35 PM 30.2 °F 26.7 °F 23.9 °F 77% 30.21 in 10.0 mi SE 3.5 mph - N/A   Clear
9:55 PM 29.8 °F 26.3 °F 23.7 °F 78% 30.21 in 10.0 mi ESE 3.5 mph - N/A   Clear
10:15 PM 29.5 °F 25.9 °F 23.5 °F 79% 30.22 in 10.0 mi ESE 3.5 mph - N/A   Clear
10:35 PM 28.9 °F 23.9 °F 23.2 °F 79% 30.22 in 10.0 mi ESE 4.6 mph - N/A   Clear
10:55 PM 28.9 °F 22.8 °F 23.0 °F 78% 30.22 in 10.0 mi ESE 5.8 mph - N/A   Clear
11:15 PM 28.9 °F 23.9 °F 23.0 °F 78% 30.22 in 10.0 mi ESE 4.6 mph - N/A   Clear
11:35 PM 29.5 °F 21.1 °F 23.5 °F 79% 30.21 in 10.0 mi East 9.2 mph - N/A   Clear
11:55 PM 30.4 °F 25.6 °F 23.9 °F 77% 30.22 in 10.0 mi ESE 4.6 mph - N/A   Clear